Regional Weather Roundup
Issued by NWS Jackson, KY

Home | Current Version | Previous Version | Graphics & Text | Print | Product List | Glossary On
Versions: 1 2 3 4 5 6 7 8 9 10 11 12 13 14 15 16 17 18 19 20 21 22 23 24 25 26 27
000
ASUS43 KJKL 270310
RWRJKL

EAST KENTUCKY HOURLY WEATHER ROUNDUP
NATIONAL WEATHER SERVICE JACKSON KY
1100 PM EDT TUE JUL 26 2016

NOTE: "FAIR" INDICATES FEW OR NO CLOUDS BELOW 12,000 FEET WITH
NO SIGNIFICANT WEATHER AND/OR OBSTRUCTIONS TO VISIBILITY.

* THESE REPORTS ARE NOT UNDER NWS QUALITY CONTROL AND MAY NOT
  REPORT WEATHER SUCH AS PRECIPITATION AND FOG.

KYZ079-080-083-085-087-088-110-112-115-119-120-270400
...EASTERN KENTUCKY...

CITY           SKY/WX    TMP DP  RH WIND       PRES   REMARKS
JACKSON        CLOUDY    75  71  87 CALM      30.05S
LONDON         CLEAR     79  73  82 CALM      30.04R
SOMERSET*      CLEAR     77  77 100 CALM      30.04R
MONTICELLO*    CLEAR    N/A N/A N/A W9        30.05R
WILLIAMSBURG*  CLEAR     77  77 100 CALM      30.04R
MIDDLESBORO*   PTCLDY    78  73  84 CALM      30.05S
HARLAN APT*      N/A     75  72  88 CALM      30.07R
PIKE CO APT*     N/A     74  72  91 CALM      30.06S
BIG SANDY APT* CLEAR     73  73  99 CALM      30.05S
MOREHEAD APT*  CLOUDY    73  72  94 CALM      30.05S
ASHLAND*       CLOUDY    73  72  94 W5        30.01R
$$

KYZ035-036-041-042-044-050-067-078-099-270400
...CENTRAL KENTUCKY...

CITY           SKY/WX    TMP DP  RH WIND       PRES   REMARKS
MT STERLING*   CLEAR     72  72 100 CALM      30.05S
FLEMING/MASON* MOCLDY    74  73  96 CALM      30.04F
DANVILLE*      CLEAR     77  73  88 CALM      30.04S
LEXINGTON      CLEAR     77  73  87 NE3       30.03S
FRANKFORT      CLEAR     77  73  87 CALM      30.01S
LOUISVILLE     MOCLDY    81  75  82 NE5       30.00R
LEBANON*         N/A     79  75  89 NE5       30.02S
GLASGOW*       MOCLDY    79  79  99 CALM      30.01R
BOWLING GREEN  CLOUDY    84  76  76 CALM      30.00R HX  93
$$

KYZ091>093-OHZ055-061-077-WVZ005-015-034-035-042-270400
...SOUTHERN OHIO/WEST VIRGINIA...

CITY           SKY/WX    TMP DP  RH WIND       PRES   REMARKS
COVINGTON      CLOUDY    77  75  93 CALM      30.02S
COLUMBUS       CLOUDY    78  72  81 S5        30.00S
DAYTON         PTCLDY    75  69  81 W3        30.03S
WILMINGTON     CLOUDY    74  73  97 S3        30.03R
HUNTINGTON       N/A     72  70  93 CALM      30.02S
CHARLESTON     FOG       73  72  96 CALM      30.02S VSB 1/4
PINEVILLE*     MOCLDY    72  69  90 MISG      30.12S FOG
BECKLEY          N/A     69  68  96 SW3       30.10F
BLUEFIELD        N/A     74  68  81 CALM      30.13F
LOGAN CO APT*    N/A     73  73 100 CALM      30.05S
$$

VAZ002-007-008-TNZ017-027-036-066-071-270400
...SOUTHWEST VIRGINIA/EAST TENNESSEE...

CITY           SKY/WX    TMP DP  RH WIND       PRES   REMARKS
WISE*            N/A     75  64  69 CALM      30.15R
JONESVILLE*      N/A     77  75  94 CALM      30.08R
ABINGDON*        N/A     77  71  80 CALM      30.10S
BRISTOL        PTCLDY    75  69  81 CALM      30.07R
MORRISTOWN*    MOCLDY    81  72  74 SW5       30.04R
SEVIERVILLE*   PTCLDY    79  70  73 CALM      30.03R
KNOXVILLE      LGT RAIN  82  73  74 SW6       30.03R
OAK RIDGE      CLOUDY    84  69  60 CALM      30.05R
CROSSVILLE     PTCLDY    78  72  81 CALM      30.09R
NASHVILLE      CLOUDY    77  70  79 SW3       30.01S
$$

...KEY TO REMARKS...
VSB - VISIBILITY IN MILES
WCI - WIND CHILL INDEX
HX  - HEAT INDEX

$$




USA.gov is the U.S. government's official web portal to all federal, state and local government web resources and services.